Location: Del Amo
(33.8464°N, 118.2104°W)
Time: 14:55:18
(UTC+00:00)

RS-15 - Visible Passes

Search period start: 03 October 2024 00:00
Search period end: 13 October 2024 00:00
Orbit: 1898 x 2146 km, 64.8° (Epoch: 02 October)

Date Brightness Start Highest point End Pass type
(mag) Time Alt. Az. Time Alt. Az. Time Alt. Az.
03 Oct 10.0 03:45:21 10° NNW 03:47:20 11° N 03:49:19 10° N visible
03 Oct 9.5 06:00:24 10° N 06:06:54 17° NNE 06:06:56 17° NNE visible
03 Oct 9.4 08:11:24 10° NNW 08:14:38 23° NNW 08:14:38 23° NNW visible
04 Oct 9.9 03:05:51 10° NW 03:09:50 12° NNW 03:13:48 10° N visible
04 Oct 9.7 05:24:43 10° N 05:29:41 14° NNE 05:31:39 13° NE visible
04 Oct 9.4 07:35:30 10° NNW 07:39:21 24° N 07:39:21 24° N visible
05 Oct 9.8 02:26:46 10° WNW 02:32:30 15° NNW 02:38:10 10° N visible
05 Oct 9.8 04:49:08 10° N 04:52:18 11° NNE 04:55:28 10° NNE visible
05 Oct 9.3 06:59:40 10° NNW 07:04:07 24° N 07:04:07 24° N visible
05 Oct 9.8 09:11:39 10° NW 09:11:50 11° NW 09:11:50 11° NW visible
06 Oct 9.8 01:48:05 10° WNW 01:55:20 18° NNW 02:02:29 10° N visible
06 Oct 9.9 04:13:55 10° N 04:14:47 10° N 04:15:38 10° NNE visible
06 Oct 9.3 06:23:52 10° NNW 06:28:56 23° NNE 06:28:56 23° NNE visible
06 Oct 9.7 08:35:28 10° NNW 08:36:39 14° NNW 08:36:39 14° NNW visible
07 Oct 9.4 05:48:08 10° NNW 05:53:46 21° NNE 05:53:46 21° NNE visible
07 Oct 9.6 07:59:23 10° NNW 08:01:29 18° NNW 08:01:29 18° NNW visible
08 Oct 9.9 02:58:00 10° NNW 02:59:36 10° N 03:01:13 10° N visible
08 Oct 9.4 05:12:24 10° N 05:18:39 17° NNE 05:18:39 17° NNE visible
08 Oct 9.5 07:23:26 10° NNW 07:26:22 21° NNW 07:26:22 21° NNW visible
09 Oct 9.8 02:18:23 10° NW 02:22:06 12° NNW 02:25:47 10° N visible
09 Oct 9.5 04:36:43 10° N 04:41:55 14° NNE 04:43:33 14° NNE visible
09 Oct 9.4 06:47:32 10° NNW 06:51:16 24° N 06:51:16 24° N visible
10 Oct 9.8 01:39:15 10° NW 01:44:44 14° NNW 01:50:10 10° N visible
10 Oct 9.6 04:01:07 10° N 04:04:33 12° NNE 04:07:58 10° NE visible
10 Oct 9.3 06:11:41 10° NNW 06:16:12 25° N 06:16:12 25° N visible
10 Oct 9.9 08:23:44 10° NW 08:23:55 11° NW 08:23:55 11° NW visible
11 Oct 9.8 03:25:46 10° N 03:27:03 10° N 03:28:19 10° NNE visible
11 Oct 9.2 05:35:53 10° NNW 05:41:09 24° NNE 05:41:09 24° NNE visible
11 Oct 9.7 07:47:32 10° NNW 07:48:53 15° NNW 07:48:53 15° NNW visible
12 Oct 9.3 05:00:08 10° NNW 05:06:08 21° NNE 05:06:08 21° NNE visible
12 Oct 9.6 07:11:27 10° NNW 07:13:51 19° NNW 07:13:51 19° NNW visible
